QPF
0.00 0.00 0.00 0.00 0.00 0.00 0.00 0.00 0.00 0.00 0.00 0.00 0.00 0.00 0.00 0.00 0.00 0.00 0.00 0.00 0.00 0.00 0.00 0.00 0.00 0.00 0.02 0.04 0.03 0.03 0.02 0.00 0.00
0.00 0.00 0.00 0.00 0.00 0.00 0.00 0.00 0.00 0.00 0.00 0.00 0.00 0.00 0.00 0.00 0.00 0.00 0.00 0.00 0.00 0.00 0.00 0.00 0.00 0.00 0.00 0.02 0.03 0.06 0.11 0.11 0.04
0.00 0.00 0.00 0.00 0.00 0.00 0.00 0.00 0.00 0.00 0.00 0.00 0.00 0.00 0.00 0.00 0.00 0.00 0.00 0.00 0.00 0.00 0.00 0.00 0.00 0.00 0.00 0.00 0.01 0.05 0.13 0.18 0.16
0.00 0.00 0.00 0.00 0.00 0.00 0.00 0.00 0.00 0.00 0.00 0.00 0.00 0.00 0.00 0.00 0.00 0.00 0.00 0.00 0.00 0.00 0.00 0.00 0.00 0.00 0.00 0.01 0.00 0.00 0.02 0.08 0.12
0.00 0.00 0.00 0.00 0.00 0.00 0.00 0.00 0.00 0.00 0.00 0.00 0.00 0.00 0.00 0.00 0.00 0.00 0.00 0.00 0.00 0.00 0.00 0.00 0.00 0.00 0.00 0.00 0.00 0.00 0.00 0.02 0.09
0.00 0.00 0.00 0.00 0.00 0.00 0.00 0.00 0.00 0.00 0.00 0.00 0.00 0.00 0.00 0.00 0.00 0.00 0.00 0.00 0.00 0.00 0.00 0.00 0.00 0.00 0.00 0.00 0.00 0.00 0.00 0.00 0.01
0.00 0.00 0.00 0.00 0.00 0.00 0.00 0.00 0.00 0.00 0.00 0.00 0.00 0.00 0.00 0.00 0.00 0.00 0.00 0.00 0.00 0.00 0.00 0.00 0.00 0.00 0.00 0.00 0.00 0.00 0.00 0.00 0.00
0.00 0.00 0.00 0.00 0.00 0.00 0.00 0.00 0.00 0.00 0.00 0.00 0.00 0.00 0.00 0.00 0.00 0.00 0.00 0.00 0.00 0.00 0.00 0.00 0.00 0.00 0.00 0.00 0.00 0.00 0.00 0.00 0.00
0.00 0.00 0.00 0.00 0.00 0.00 0.00 0.00 0.00 0.00 0.00 0.00 0.00 0.00 0.00 0.00 0.00 0.00 0.00 0.00 0.00 0.00 0.00 0.00 0.00 0.00 0.00 0.00 0.00 0.00 0.00 0.00 0.00
0.00 0.00 0.00 0.00 0.00 0.00 0.00 0.00 0.00 0.00 0.00 0.00 0.00 0.00 0.00 0.00 0.00 0.00 0.00 0.00 0.00 0.00 0.00 0.00 0.00 0.00 0.00 0.01 0.02 0.01 0.02 0.02 0.02
0.00 0.00 0.00 0.00 0.00 0.00 0.00 0.00 0.00 0.00 0.00 0.00 0.00 0.00 0.00 0.00 0.00 0.00 0.00 0.00 0.00 0.00 0.00 0.01 0.03 0.04 0.04 0.04 0.02 0.01 0.01 0.01 0.01
0.00 0.00 0.00 0.00 0.00 0.00 0.00 0.00 0.00 0.00 0.00 0.00 0.00 0.00 0.00 0.00 0.00 0.00 0.00 0.00 0.00 0.00 0.00 0.00 0.01 0.02 0.04 0.02 0.00 0.00 0.00 0.00 0.00
0.00 0.00 0.00 0.00 0.00 0.00 0.00 0.00 0.00 0.00 0.00 0.00 0.00 0.00 0.00 0.00 0.00 0.00 0.00 0.00 0.00 0.00 0.00 0.00 0.00 0.00 0.00 0.00 0.00 0.00 0.00 0.00 0.00
0.00 0.00 0.00 0.00 0.00 0.00 0.00 0.00 0.00 0.00 0.00 0.00 0.00 0.00 0.00 0.00 0.00 0.00 0.00 0.00 0.00 0.00 0.00 0.00 0.00 0.00 0.00 0.00 0.00 0.00 0.00 0.00 0.00
0.00 0.00 0.00 0.00 0.00 0.00 0.00 0.00 0.00 0.00 0.00 0.00 0.00 0.00 0.00 0.00 0.00 0.00 0.00 0.00 0.00 0.00 0.00 0.00 0.00 0.00 0.00 0.00 0.00 0.00 0.00 0.00 0.00
0.00 0.00 0.00 0.00 0.00 0.00 0.00 0.00 0.00 0.00 0.00 0.00 0.00 0.00 0.00 0.00 0.00 0.00 0.00 0.00 0.00 0.00 0.00 0.00 0.00 0.00 0.00 0.00 0.00 0.00 0.00 0.00 0.00
0.00 0.00 0.00 0.00 0.00 0.00 0.00 0.00 0.00 0.00 0.00 0.00 0.00 0.00 0.00 0.00 0.00 0.00 0.00 0.00 0.00 0.00 0.00 0.00 0.00 0.00 0.00 0.00 0.00 0.00 0.00 0.00 0.00
0.00 0.00 0.00 0.00 0.00 0.00 0.00 0.00 0.00 0.00 0.00 0.00 0.00 0.00 0.00 0.00 0.00 0.00 0.00 0.00 0.00 0.00 0.00 0.00 0.00 0.00 0.00 0.00 0.00 0.00 0.00 0.00 0.00
0.00 0.00 0.00 0.00 0.00 0.00 0.00 0.00 0.00 0.00 0.00 0.00 0.00 0.00 0.00 0.00 0.00 0.00 0.00 0.00 0.00 0.00 0.00 0.00 0.00 0.00 0.00 0.00 0.00 0.00 0.00 0.00 0.00
0.00 0.00 0.00 0.00 0.00 0.00 0.00 0.00 0.00 0.00 0.00 0.00 0.00 0.00 0.00 0.00 0.00 0.00 0.00 0.00 0.00 0.00 0.00 0.00 0.00 0.00 0.00 0.00 0.00 0.00 0.00 0.00 0.00
MSLP
1018.71 1018.73 1018.75 1018.70 1018.54 1018.46 1018.36 1018.27 1018.22 1018.13 1017.99 1017.81 1017.63 1017.52 1017.42 1017.19 1016.22 1016.05 1015.94 1016.08 1016.03 1016.23 1016.18 1016.06 1015.84 1015.68 1015.48 1015.35 1015.29 1015.22 1015.26 1015.23 1015.32
1019.05 1019.04 1018.94 1018.92 1018.79 1018.64 1018.57 1018.50 1018.41 1018.33 1018.20 1018.00 1017.85 1017.72 1017.61 1017.11 1016.45 1016.21 1016.27 1016.33 1016.55 1016.38 1016.12 1015.88 1015.67 1015.50 1015.37 1015.24 1015.16 1015.04 1014.93 1014.94 1015.00
1019.40 1019.37 1019.24 1019.17 1019.10 1018.95 1018.82 1018.70 1018.63 1018.55 1018.37 1018.18 1018.01 1017.87 1017.68 1017.04 1016.45 1016.54 1016.49 1016.98 1016.78 1016.33 1016.08 1015.82 1015.70 1015.48 1015.16 1015.06 1015.02 1014.92 1014.66 1014.59 1014.73
1019.72 1019.68 1019.54 1019.46 1019.42 1019.23 1019.06 1018.95 1018.80 1018.68 1018.54 1018.37 1018.17 1017.94 1017.62 1017.26 1016.67 1016.62 1016.57 1017.12 1016.87 1016.49 1016.18 1015.99 1015.88 1015.62 1015.44 1015.37 1015.24 1015.08 1014.89 1014.76 1014.81
1019.93 1019.69 1019.89 1019.74 1019.63 1019.53 1019.36 1019.19 1019.00 1018.74 1018.58 1018.40 1018.16 1017.81 1017.54 1016.75 1016.74 1016.72 1017.44 1017.34 1016.86 1016.53 1016.32 1016.13 1016.04 1015.90 1015.78 1015.69 1015.58 1015.42 1015.24 1015.21 1015.16
1019.57 1020.32 1020.18 1019.99 1019.82 1019.70 1019.49 1019.28 1019.00 1018.47 1018.33 1018.27 1017.94 1017.72 1017.03 1016.92 1017.06 1017.26 1017.85 1017.49 1017.00 1016.66 1016.43 1016.25 1016.14 1016.10 1015.98 1015.88 1015.78 1015.62 1015.51 1015.38 1015.31
1019.79 1020.14 1020.13 1019.93 1019.71 1019.57 1019.32 1019.08 1018.70 1018.33 1017.88 1017.68 1017.58 1017.29 1017.11 1017.14 1017.29 1018.02 1018.10 1017.60 1017.12 1016.83 1016.68 1016.51 1016.30 1016.15 1016.05 1015.98 1015.96 1015.84 1015.69 1015.52 1015.36
1019.54 1019.54 1019.56 1019.46 1019.37 1019.11 1018.97 1018.63 1018.56 1018.44 1018.16 1017.87 1017.58 1017.46 1017.41 1017.30 1017.40 1018.32 1018.33 1017.96 1017.50 1017.02 1016.70 1016.53 1016.36 1016.22 1016.16 1016.10 1015.98 1015.91 1015.81 1015.69 1015.58
1019.52 1019.53 1019.58 1019.49 1019.43 1019.29 1019.17 1018.93 1018.74 1018.51 1018.28 1018.09 1017.92 1017.77 1017.66 1017.57 1017.60 1018.35 1018.51 1018.32 1017.90 1017.37 1016.95 1016.79 1016.64 1016.50 1016.38 1016.20 1016.13 1016.11 1016.08 1015.99 1015.89
1019.76 1019.73 1019.77 1019.70 1019.62 1019.48 1019.30 1019.13 1018.94 1018.70 1018.48 1018.28 1018.27 1018.11 1017.99 1017.89 1017.83 1018.12 1018.54 1018.54 1018.25 1017.72 1017.26 1017.02 1016.74 1016.56 1016.46 1016.60 1016.55 1016.54 1016.48 1016.30 1016.23
1020.12 1019.89 1019.97 1019.91 1019.84 1019.68 1019.44 1019.30 1019.06 1018.81 1018.72 1018.56 1018.49 1018.30 1018.34 1018.26 1018.23 1018.12 1018.33 1018.58 1018.53 1018.06 1017.73 1017.43 1017.07 1016.90 1016.88 1016.83 1016.87 1016.90 1016.81 1016.61 1016.44
1020.31 1020.23 1020.15 1020.18 1020.06 1019.86 1019.60 1019.46 1019.12 1019.00 1018.82 1018.76 1018.75 1018.70 1018.58 1018.54 1018.56 1018.48 1018.32 1018.46 1018.73 1018.70 1018.41 1018.10 1017.78 1017.46 1017.27 1017.20 1017.21 1017.29 1017.21 1016.95 1016.75
1020.28 1020.28 1020.26 1020.41 1020.24 1020.12 1019.92 1019.75 1019.52 1019.32 1019.13 1018.95 1018.91 1018.78 1018.93 1018.87 1018.78 1018.76 1018.73 1018.78 1018.46 1018.85 1018.95 1018.74 1018.49 1018.21 1017.88 1017.79 1017.72 1017.60 1017.54 1017.31 1017.04
1020.31 1020.35 1020.39 1020.42 1020.31 1020.19 1020.13 1019.91 1019.80 1019.63 1019.44 1019.24 1019.21 1019.14 1019.11 1019.06 1019.00 1019.06 1019.01 1019.07 1018.89 1018.66 1019.11 1019.08 1018.98 1018.82 1018.64 1018.56 1018.35 1017.98 1017.73 1017.62 1017.32
1020.46 1020.38 1020.37 1020.50 1020.26 1020.19 1020.23 1020.13 1019.97 1019.80 1019.69 1019.35 1019.27 1019.33 1019.41 1019.39 1019.39 1019.20 1019.06 1019.20 1019.11 1018.93 1018.82 1018.81 1019.00 1019.01 1018.92 1019.03 1018.90 1018.56 1018.28 1017.89 1017.48
1020.44 1020.33 1020.30 1020.36 1020.38 1020.42 1020.40 1020.31 1020.05 1019.83 1019.95 1019.37 1019.05 1019.10 1019.39 1019.48 1019.57 1019.48 1019.30 1019.25 1019.22 1019.24 1019.08 1018.91 1018.90 1018.89 1019.11 1019.31 1019.28 1019.05 1018.81 1018.36 1017.87
1020.34 1020.32 1020.37 1020.41 1020.44 1020.41 1020.53 1020.53 1020.34 1020.02 1020.22 1020.07 1019.49 1018.94 1019.19 1019.25 1019.48 1019.63 1019.60 1019.46 1019.27 1019.22 1019.22 1019.19 1019.32 1019.21 1019.14 1019.45 1019.53 1019.42 1019.12 1018.65 1018.17
1020.49 1020.44 1020.48 1020.46 1020.59 1020.56 1020.68 1020.71 1020.69 1020.56 1020.31 1020.50 1020.47 1019.82 1019.46 1019.40 1019.22 1019.40 1019.44 1019.50 1019.30 1019.18 1019.29 1019.08 1019.52 1019.31 1019.33 1019.60 1019.73 1019.74 1019.41 1018.86 1018.44
1020.44 1020.56 1020.53 1020.55 1020.57 1020.63 1020.62 1020.71 1020.91 1020.88 1020.66 1020.59 1020.64 1020.87 1020.79 1020.24 1019.55 1019.25 1019.39 1019.31 1019.22 1019.21 1019.23 1019.17 1019.76 1019.86 1019.68 1019.84 1020.07 1019.92 1019.57 1019.14 1018.69
1020.37 1020.51 1020.58 1020.57 1020.57 1020.54 1020.69 1020.74 1020.77 1020.89 1020.96 1020.87 1020.88 1020.78 1020.64 1020.57 1020.40 1019.84 1019.53 1019.39 1019.29 1019.22 1019.04 1019.38 1019.76 1019.90 1020.11 1020.11 1020.13 1020.00 1019.69 1019.30 1018.94
Thickness
5714 5715 5714 5714 5715 5716 5715 5715 5715 5715 5715 5716 5716 5716 5716 5717 5720 5719 5717 5714 5712 5707 5705 5703 5702 5701 5700 5698 5696 5694 5692 5690 5687
5711 5711 5712 5712 5712 5713 5713 5713 5713 5712 5713 5713 5713 5713 5712 5713 5715 5714 5711 5708 5704 5702 5700 5699 5697 5696 5695 5693 5690 5688 5686 5683 5681
5708 5708 5709 5709 5709 5710 5710 5710 5710 5709 5710 5710 5709 5709 5709 5710 5711 5707 5705 5698 5697 5697 5696 5694 5691 5689 5689 5687 5684 5681 5681 5678 5674
5704 5704 5705 5706 5705 5706 5707 5707 5707 5707 5707 5707 5706 5706 5706 5706 5706 5702 5699 5692 5690 5689 5688 5685 5682 5681 5679 5676 5673 5671 5669 5666 5663
5701 5702 5701 5702 5702 5702 5703 5703 5704 5704 5704 5703 5703 5704 5703 5704 5700 5697 5688 5685 5684 5682 5680 5677 5672 5669 5666 5663 5660 5657 5655 5651 5648
5700 5697 5697 5698 5699 5698 5699 5700 5701 5703 5702 5701 5700 5700 5700 5698 5693 5688 5680 5677 5676 5674 5671 5668 5664 5659 5655 5650 5646 5642 5640 5639 5637
5696 5695 5695 5696 5697 5697 5698 5698 5699 5700 5701 5700 5698 5697 5695 5691 5686 5677 5672 5671 5668 5665 5661 5657 5653 5648 5643 5638 5633 5630 5627 5626 5625
5694 5694 5694 5695 5696 5696 5696 5697 5695 5694 5694 5693 5693 5690 5687 5684 5679 5669 5664 5661 5658 5656 5652 5647 5642 5637 5631 5627 5625 5621 5618 5615 5613
5690 5691 5690 5691 5691 5691 5691 5691 5690 5689 5689 5687 5686 5683 5680 5676 5671 5662 5655 5651 5647 5645 5642 5637 5631 5626 5622 5620 5616 5612 5607 5603 5599
5685 5685 5685 5685 5685 5685 5686 5685 5684 5684 5683 5681 5678 5675 5671 5667 5663 5656 5648 5642 5637 5634 5631 5627 5623 5620 5616 5610 5606 5602 5598 5594 5591
5678 5680 5679 5679 5679 5679 5680 5679 5679 5678 5676 5674 5670 5667 5662 5658 5653 5649 5642 5634 5627 5624 5620 5618 5616 5613 5609 5604 5599 5594 5590 5587 5585
5672 5673 5673 5672 5673 5673 5674 5674 5674 5672 5670 5667 5663 5659 5655 5650 5645 5639 5634 5627 5620 5614 5611 5609 5606 5605 5602 5597 5593 5587 5584 5582 5580
5667 5667 5667 5666 5666 5666 5667 5666 5666 5665 5663 5660 5657 5653 5646 5641 5636 5630 5623 5617 5615 5609 5604 5601 5598 5596 5595 5590 5587 5583 5579 5578 5577
5661 5661 5661 5661 5661 5661 5660 5660 5658 5656 5655 5653 5648 5644 5639 5634 5628 5621 5614 5608 5606 5605 5599 5595 5592 5589 5587 5583 5581 5579 5577 5575 5575
5655 5655 5656 5655 5656 5655 5654 5653 5652 5650 5648 5646 5642 5637 5631 5625 5619 5613 5607 5602 5600 5599 5596 5592 5589 5586 5582 5578 5576 5575 5573 5573 5574
5649 5650 5650 5650 5649 5648 5647 5645 5645 5644 5640 5641 5639 5633 5626 5618 5611 5603 5600 5598 5596 5593 5591 5588 5586 5584 5579 5575 5572 5571 5569 5570 5571
5645 5644 5644 5643 5643 5642 5639 5637 5636 5636 5631 5627 5628 5628 5621 5614 5605 5598 5594 5593 5592 5590 5586 5583 5579 5578 5576 5572 5570 5568 5567 5567 5569
5638 5638 5638 5637 5635 5634 5632 5629 5627 5624 5624 5619 5614 5614 5612 5605 5603 5597 5593 5590 5589 5587 5583 5580 5574 5575 5572 5568 5566 5565 5564 5565 5566
5634 5632 5631 5630 5629 5627 5625 5622 5619 5616 5614 5611 5607 5600 5595 5593 5594 5596 5591 5589 5586 5584 5581 5577 5570 5568 5567 5564 5562 5561 5562 5562 5564
5628 5626 5624 5623 5622 5620 5618 5615 5613 5609 5605 5602 5598 5595 5591 5589 5585 5585 5586 5586 5583 5580 5579 5574 5567 5564 5561 5559 5558 5558 5559 5560 5561